CAPE
0 0 0 0 0 0 0 0 0 0 0 0 0 0 0 0 0 0 0 0 0 0
0 0 0 0 0 0 0 0 0 0 0 0 0 0 0 0 0 0 0 0 0 0
0 0 0 0 0 0 0 0 0 0 0 0 0 0 0 0 0 0 0 0 0 0
0 0 0 0 0 0 0 0 0 0 0 0 0 0 0 0 0 0 0 0 0 0
0 0 0 0 0 0 0 0 0 0 0 0 0 0 0 0 0 0 0 0 0 0
0 0 0 0 0 0 0 0 0 0 0 0 0 0 0 0 0 0 0 0 0 0
0 0 0 0 0 0 0 0 0 0 0 0 0 0 0 0 0 0 0 0 0 0
0 0 0 0 0 0 0 0 0 0 0 0 0 0 0 0 0 0 0 0 0 0
0 0 0 0 0 0 0 0 0 0 0 0 0 0 0 0 0 0 0 0 0 0
0 0 0 0 0 0 0 0 0 0 0 0 0 0 0 0 0 0 0 0 0 0
0 0 0 0 0 0 0 0 0 0 0 0 0 0 0 0 0 0 0 0 0 0
0 0 0 0 0 0 0 0 0 0 0 0 0 0 0 0 0 0 0 0 0 0
0 0 0 0 0 0 0 0 0 0 0 0 0 0 0 0 0 0 0 0 0 0
0 0 0 0 0 0 0 0 0 0 0 0 0 0 0 0 0 0 0 0 0 0
CIN
0 0 0 0 0 0 0 0 0 0 0 0 0 0 0 0 0 0 0 0 0 0
0 0 0 0 0 0 0 0 0 0 0 0 0 0 0 0 0 0 0 0 0 0
0 0 0 0 0 0 0 0 0 0 0 0 0 0 0 0 0 0 0 0 0 0
0 0 0 0 0 0 0 0 0 0 0 0 0 0 0 0 0 0 0 0 0 0
0 0 0 0 0 0 0 0 0 0 0 0 0 0 0 0 0 0 0 0 0 0
0 0 0 0 0 0 0 0 0 0 0 0 0 0 0 0 0 0 0 0 0 0
0 0 0 0 0 0 0 0 0 0 0 0 0 0 0 0 0 0 0 0 0 0
0 0 0 0 0 0 0 0 0 0 0 0 0 0 0 0 0 0 0 0 0 0
0 0 0 0 0 0 0 0 0 0 0 0 0 0 0 0 0 0 0 0 0 0
0 0 0 0 0 0 0 0 0 0 0 0 0 0 0 0 0 0 0 0 0 0
0 0 0 0 0 0 0 0 0 0 0 0 0 0 0 0 0 0 0 0 0 0
0 0 0 0 0 0 0 0 0 0 0 0 0 0 0 0 0 0 0 0 0 0
0 0 0 0 0 0 0 0 0 0 0 0 0 0 0 0 0 0 0 0 0 0
0 0 0 0 0 0 0 0 0 0 0 0 0 0 0 0 0 0 0 0 0 0
Wind_Speed
30 29 26 23 20 17 15 12 11 10 9 8 8 10 10 11 12 13 14 15 14 14
30 31 29 26 24 20 17 15 12 11 10 10 8 10 9 11 12 14 14 14 16 15
31 30 30 28 26 23 20 17 14 12 11 10 9 9 9 11 11 13 12 13 14 14
33 30 29 29 28 25 22 19 17 15 13 12 10 10 10 11 10 12 12 11 14 15
33 32 30 29 29 26 24 21 19 17 15 13 11 10 10 12 11 12 12 12 14 16
34 33 31 30 29 28 25 23 21 19 17 15 13 12 10 12 11 12 11 12 15 17
34 33 32 30 29 28 26 24 23 21 18 16 14 13 12 11 10 11 10 10 14 17
34 32 32 31 30 29 27 25 23 22 20 17 15 14 13 12 11 12 10 10 13 16
33 33 32 31 30 30 29 27 25 24 21 19 16 15 15 13 12 11 12 12 11 14
33 33 33 31 31 31 30 27 26 24 22 20 17 17 16 15 12 12 12 12 12 12
33 33 33 32 32 31 30 28 26 24 22 20 19 18 17 16 13 12 12 11 12 13
32 33 33 33 32 31 30 29 27 25 23 22 20 19 18 16 15 14 13 12 11 12
30 31 33 33 32 31 30 29 27 25 24 23 21 20 19 18 16 15 14 14 12 12
29 30 30 31 32 31 30 29 27 26 25 24 23 21 20 18 18 17 16 16 14 13
Wind_Direction
231 232 233 230 230 225 219 216 199 184 178 164 143 132 122 116 112 110 114 116 115 114
230 231 231 231 233 232 230 225 207 198 186 170 158 142 128 123 113 110 111 112 115 115
230 230 232 230 229 230 229 224 211 207 197 184 170 151 138 127 116 116 109 110 114 114
230 229 231 229 229 227 228 222 215 211 204 191 179 163 149 137 126 120 113 109 118 121
229 228 229 229 228 226 225 224 218 215 211 199 187 174 162 148 137 130 122 116 119 125
228 227 228 228 226 224 224 222 220 216 213 200 189 181 174 158 148 139 129 127 128 130
228 227 227 228 225 223 223 221 220 217 215 205 199 191 179 167 160 146 138 134 133 135
228 227 227 226 225 224 223 223 220 217 217 213 204 195 184 180 169 157 148 142 139 137
226 225 225 225 224 223 223 223 220 220 216 211 211 200 190 187 181 170 161 155 151 144
225 225 224 224 223 222 222 221 220 219 216 213 216 198 191 191 194 185 177 171 168 158
225 225 223 223 223 222 221 219 219 219 218 216 218 199 197 195 205 205 197 189 180 172
225 225 223 223 222 222 220 221 221 220 217 217 219 202 200 201 209 213 208 211 197 188
226 225 224 224 222 222 221 221 222 222 222 220 218 207 204 212 219 211 216 224 215 197
229 226 225 224 223 220 220 221 223 222 224 223 220 214 208 211 219 219 218 223 224 221